Location: Bergstetten
(48.8006°N, 10.8197°E)
Time: 22:23:26
(UTC+00:00)

Daily predictions for brighter satellites

Satellite Brightness Start Highest point End
(mag) Time Altitude Azimuth Time Altitude Azimuth Time Altitude Azimuth
Cosmos 2208 Rocket 4.0 15:48:46 10° NNW 15:53:58 78° ENE 15:59:09 10° SSE
Cosmos 2098 Rocket 3.6 15:50:12 10° SSE 15:54:10 42° E 15:58:49 10° NNE
NOSS 2-2 (E) 2.7 15:51:52 10° SSW 15:55:14 70° SE 15:58:15 10° NE
Cosmos 724 4.3 15:51:22 10° NW 15:57:28 76° NE 16:03:22 10° SE
Meteor 1-20 Rocket 4.5 15:53:27 10° N 15:58:40 44° ENE 16:03:52 10° SE
CZ-4C R/B 2.9 15:53:32 10° NW 16:00:17 69° NE 16:08:45 10° SE
Cosmos 2266 Rocket 4.2 15:55:49 10° N 16:01:42 45° ENE 16:07:28 10° SE
Cosmos 405 Rocket 2.6 16:00:11 10° NNW 16:03:25 68° W 16:06:36 10° S
CBERS-1 4.0 15:59:24 10° SSE 16:04:30 77° ENE 16:09:38 10° NNW
SMAP 3.3 16:01:32 10° SE 16:05:58 46° ENE 16:10:26 10° N
Cosmos 2297 Rocket 2.2 16:03:53 10° NNW 16:09:36 86° ENE 16:15:16 10° SSE
Landsat 7 4.2 16:06:28 10° SE 16:10:48 40° ENE 16:15:10 10° N
Cosmos 1626 Rocket 3.7 16:09:58 10° NNW 16:14:17 75° W 16:18:34 10° S
Meteor 1-28 Rocket 2.8 16:11:45 10° NNE 16:15:05 67° ESE 16:18:24 10° S
NOSS 2-2 (C) 4.2 16:14:03 10° W 16:16:49 28° NW 16:19:29 10° NNE
Cosmos 1315 Rocket 4.5 16:18:46 10° SW 16:22:13 32° WNW 16:25:42 10° N
Cosmos 1606 Rocket 4.2 16:19:29 10° SSE 16:23:29 34° E 16:27:30 10° NNE
ATLAS CENTAUR R/B 3.1 16:23:05 10° WNW 16:25:54 28° WSW 16:28:37 10° S
Thor Agena Rocket 3.5 16:21:43 10° SSE 16:26:56 87° ENE 16:32:07 10° NNW
Cosmos 1503 Rocket 4.0 16:22:46 10° S 16:27:56 64° ESE 16:33:05 10° NNE
Cosmos 2219 4.0 16:24:19 10° NNW 16:29:18 29° NE 16:34:16 10° ESE
CENTAUR R/B 3.6 16:24:15 10° W 16:29:55 39° NNW 16:36:56 10° NE
Cosmos 1484 Rocket 3.8 16:28:18 10° S 16:31:41 45° W 16:35:04 10° NNW
Cosmos 1544 Rocket 4.0 16:28:18 10° SSW 16:32:40 66° W 16:37:06 10° N
USA 290 3.3 16:30:10 10° NNW 16:33:20 49° WSW 16:36:29 10° S
SL-16 R/B 2.8 16:27:15 10° NNE 16:33:29 75° WNW 16:39:38 10° SSW
GEOS 3 Rocket 3.8 16:28:51 12° NE 16:33:55 67° SE 16:39:16 10° SSW
AQUARIUS 4.3 16:29:42 10° SE 16:33:56 48° ENE 16:38:12 10° N
Cosmos 1980 Rocket 3.3 16:30:24 10° SSE 16:34:55 25° ESE 16:37:57 16° ENE
Lacrosse 5 rocket 2.5 16:32:18 10° WNW 16:35:29 25° NNW 16:37:41 15° NE
NOSS 2-3 (C) 4.5 16:32:56 10° SSE 16:35:36 21° ESE 16:36:50 17° E
Cosmos 1844 Rocket 4.3 16:32:51 10° N 16:36:04 15° NNE 16:37:19 14° NE
Cosmos 1354 Rocket 4.2 16:32:27 10° S 16:37:34 55° ESE 16:42:35 11° NNE
Meteor 1-25 Rocket 4.2 16:33:31 10° N 16:39:22 71° ENE 16:45:06 10° SSE
Meteor 1-5 Rocket 4.3 16:34:15 10° N 16:39:25 47° ENE 16:44:40 10° SSE
Lacrosse 4 Rocket 3.7 16:37:46 10° WNW 16:40:06 15° NW 16:42:25 10° N
BREEZE M DEB (TANK) 2.5 16:38:06 10° SW 16:40:27 36° SSE 16:41:17 24° ESE
CORIOLIS 4.2 16:35:50 10° SSE 16:41:09 82° WSW 16:46:33 10° NNW
IRIDIUM 104 4.3 16:38:47 10° N 16:44:04 89° E 16:49:16 10° S
Cosmos 1777 Rocket 4.1 16:38:53 10° SSW 16:44:09 84° WNW 16:49:26 10° NNE
Cosmos 2263 Rocket 2.4 16:39:03 10° NNW 16:44:32 47° NE 16:50:00 10° SE
Cosmos 1726 Rocket 4.0 16:42:56 10° SSE 16:47:21 46° E 16:51:45 10° NNE
CZ-2D R/B 2.5 16:44:46 10° SSE 16:47:53 77° ENE 16:51:02 10° N
USA 238 DEB 4.1 16:44:38 10° S 16:50:05 36° ESE 16:53:47 20° ENE
USA 238 4.2 16:44:46 10° S 16:50:12 35° ESE 16:53:52 20° ENE
Okean 1-7 Rocket 3.6 16:46:55 10° N 16:51:20 85° W 16:55:41 10° S
IRIDIUM 114 4.5 16:47:57 10° N 16:53:11 78° W 16:58:23 10° S
Cosmos 1602 Rocket 4.3 16:48:55 10° NNW 16:53:13 56° W 16:57:27 10° S
ERS-1 4.4 16:48:25 10° SSE 16:53:26 79° ENE 16:58:25 10° NNW
Cosmos 1461 3.0 16:52:03 10° SW 16:55:55 66° NW 16:58:29 21° NNE
Cosmos 1933 3.1 16:53:38 10° S 16:57:27 85° ESE 17:01:18 10° N
USA 215 3.8 16:53:50 19° ENE 16:58:07 44° N 17:04:15 10° WNW
IRS-1C 4.2 16:53:50 10° SSE 16:59:09 80° WSW 17:04:31 10° NNW
YAOGAN 1 3.1 16:56:05 10° SE 16:59:56 35° ENE 17:03:50 10° N
Cosmos-2242 3.9 16:56:36 10° SSE 17:00:10 27° E 17:00:12 27° E
Cosmos 2227 Rocket 2.2 16:55:21 10° NNW 17:01:02 86° WSW 17:06:41 10° SSE
SKYMED 2 4.0 16:58:49 22° NE 17:01:03 38° E 17:05:07 10° SSE
BREEZE-M DEB (TANK) 4.0 16:58:23 10° SSW 17:01:35 20° SSE 17:02:21 18° SE
NOSS 2-3 (E) 3.4 16:58:52 10° SSW 17:02:25 50° SE 17:03:39 34° ENE
NOSS 2-3 (D) 3.5 16:59:33 10° SSW 17:03:05 47° SE 17:04:13 34° ENE
SJ-12 3.9 17:00:16 10° S 17:04:01 71° WSW 17:07:49 10° NNW
Cosmos 2151 4.4 17:03:23 10° NNW 17:07:16 39° W 17:11:10 10° SSW
Cosmos 1655 Rocket 3.9 17:07:03 10° N 17:13:20 80° E 17:19:33 10° SSE
Meteor 2-10 4.1 17:09:12 10° N 17:14:30 58° ENE 17:19:58 10° SSE
Cosmos 1697 Rocket 2.7 17:09:20 10° SSW 17:14:56 83° WNW 17:19:15 18° NNE
Cosmos 990 Rocket 3.9 17:10:05 10° SSW 17:15:13 88° WNW 17:19:09 18° NNE
CZ-4 R/B 4.2 17:11:31 10° SSE 17:15:26 75° ENE 17:19:24 10° N
Cosmos 1867 4.5 17:10:41 10° NW 17:15:58 51° WSW 17:21:12 10° SSE
MOS 1 Rocket 3.7 17:11:51 10° S 17:16:46 73° WSW 17:21:59 10° NNW
Cosmos 1953 Rocket 3.4 17:12:40 10° N 17:17:08 78° E 17:21:35 10° SSE
Aureole 1 Rocket 3.6 17:13:14 10° S 17:17:31 48° ESE 17:19:37 31° NE
ARIANE 5 R/B 3.5 17:19:19 10° S 17:24:12 48° W 17:29:11 10° NNW
Cosmos 1825 Rocket 4.4 17:22:10 10° NNW 17:26:24 50° W 17:30:33 10° S
COSMOS 2455 4.2 17:26:41 10° SSE 17:29:38 20° SE 17:29:38 20° SE
NOAA 6 4.0 17:26:39 10° SE 17:31:35 53° ENE 17:36:33 10° N
Cosmos 1680 Rocket 4.2 17:27:49 10° N 17:31:46 34° NE 17:31:46 34° NE
USA 81 3.9 17:28:53 10° N 17:34:12 82° E 17:39:28 10° S
CZ-2D R/B 3.4 17:31:14 10° SSE 17:35:26 88° WSW 17:39:37 10° NNW
Radarsat Rocket 4.5 17:28:52 10° SSE 17:36:59 77° ENE 17:44:12 10° NNW
IRAS Rocket 4.1 17:32:29 10° SSE 17:37:56 72° ENE 17:43:24 10° NNW
Meteor 2-2 Rocket 4.1 17:33:49 10° S 17:39:21 62° E 17:41:51 32° NNE
Gbstr 26 Del rocket 2.5 17:35:37 10° WSW 17:39:36 89° NNW 17:39:37 88° NNE
NOSS 3-2 (C) 3.9 17:35:01 10° WSW 17:40:05 48° NW 17:43:16 26° NNE
SPOT 1/Viking Rocket 3.8 17:35:58 10° S 17:41:09 70° WSW 17:46:22 10° NNW
PSLV R/B 3.2 17:39:05 10° SSE 17:43:07 80° ENE 17:47:10 10° NNW
Cosmos 1076 Rocket 4.4 17:40:18 10° NNW 17:44:28 50° W 17:48:38 10° S
SL-19 R/B 4.1 17:41:19 10° SSE 17:46:43 85° ENE 17:52:26 10° NNW
Cosmos 2082 3.6 17:42:36 10° NNW 17:48:21 74° ENE 17:50:41 37° SE
CZ-4C R/B 4.4 17:41:58 10° NW 17:48:36 39° WSW 17:56:29 10° S
COSMO-SKYMED 1 2.5 17:49:12 64° SSE 17:49:12 64° SSE 17:52:46 10° S
Cosmos 2058 Rocket 3.0 17:45:20 10° S 17:49:48 87° W 17:50:44 56° N
SL-16 R/B 4.4 17:56:00 10° SSE 17:56:09 11° SSE 17:56:09 11° SSE
Meteor 2-11 Rocket 4.3 17:54:27 10° N 18:00:39 71° ENE 18:06:46 10° SSE
Nadezhda 2 Rocket 4.3 17:56:11 10° N 18:02:21 88° W 18:08:27 10° S
Meteor 1-26 Rocket 4.0 17:58:20 10° SSW 18:03:44 85° WNW 18:05:35 43° N
Cosmos 1553 Rocket 3.9 18:04:51 10° S 18:11:01 90° SSW 18:14:52 25° N
Resurs 1-3 4.5 18:07:55 10° S 18:12:04 47° W 18:16:14 10° NNW
Lacrosse 5 rocket 3.6 18:10:17 10° NW 18:11:16 15° NW 18:11:16 15° NW
Cosmos 2219 3.6 18:08:11 10° NNW 18:13:51 62° WSW 18:17:57 19° S
Cosmos 1980 Rocket 2.6 18:12:52 10° SW 18:18:28 61° WNW 18:19:44 48° N
Cosmos 1844 Rocket 3.7 18:15:42 10° NNW 18:18:59 34° N 18:18:59 34° N
CENTAUR R/B 4.2 18:16:56 10° WNW 18:22:39 27° N 18:24:02 25° NNE
Cosmos 1745 Rocket 4.5 18:20:33 10° N 18:24:48 46° N 18:24:48 46° N
Cosmos 2263 Rocket 3.7 18:23:14 10° NW 18:28:17 34° WSW 18:33:18 10° SSW
Cosmos 1898 Rocket 3.9 18:25:23 10° SW 18:30:11 58° WNW 18:30:11 58° WNW
Cosmos 2369 3.9 18:25:38 10° SSW 18:30:42 69° SW 18:30:42 69° SW
USA 215 3.5 18:41:10 57° N 18:41:10 57° N 18:46:58 10° NW
USA 238 DEB 3.9 18:34:33 10° WSW 18:40:40 59° NW 18:41:14 57° NNW
USA 238 3.9 18:34:39 10° WSW 18:40:46 60° NW 18:41:20 58° NNW
